Showing default

ICEYE-X11, 48918

Orbit data source: Space-Track

ICEYE-X11, 48918 is a payload satellite owned by ICEYE (FI) in SSO that was launched on Wed, 30 Jun 2021 UTC via an FALCON 9 launch vehicle from the Air Force Eastern Test Range (AFETR). Payload-class satellites include a variety of spacecraft equipped with specific instruments for various scientific and technological missions. These include communications satellites like Starlink; space stations such as the ISS; scientific satellites like the Hubble; Earth observation satellites from companies like Planet Labs, Umbra, and HawkEye 360; GPS; miniature CubeSats for education and research; and military/defense satellites.

Loading next visibility...
Identifier
48918, 2021-059AR
Orbit
SSO
Country
Flag of FIFI / FIN
Related business
Manufacturer
ICEYE
Mission
Operational Commercial Radar Imaging
Bus & Motor
ICEYE, Unknown motor
Mass
80 kg wet, 80 kg dry
Launch date (UTC)
2021-06-30 (5 years ago)
Launch vehicle
FALCON 9
Launch site
Air Force Eastern Test Range (AFETR)
Object type
Payload
Rocket body
Debris
Shape & HBR
Box + 1 Pan, 2.4 m
Radar Cross Section
1.837 m², Medium (>0.1 m² and < 1m²)

Expand to show TLE details & history
Last TLE update: 5 hours ago

TLE from 5 hours ago
0 ICEYE-X11
1 48918U 21059AR  26062.95701788  .00111839  00000-0  82124-3 0  9991
2 48918  97.6452 250.3315 0004610 355.4120   4.7100 15.72768981261336
Epoch: 2026-03-03T22:58Z
TLE epoch observation values (Epoch: 2026-03-03T22:58:06.344Z)
Latitude
-0.00003°
Longitude
104.07644°
Altitude
351.049 km
Speed
7.7 km/s
True Right ascension
16h 41m 19s
True Declination
0° 00' 00"
Sunlit
Object was in daylight at epoch
Visualization orbit readout
Latitude
Unknown
Longitude
Unknown
Altitude
Unknown
Speed
Unknown
Apparent Right ascension
Unknown
Apparent Declination
Unknown
Sunlit
N/A
Visualization observer readout
Local Sidereal Time
07:39:04
Azimuth
Unknown
Elevation
Unknown
Doppler factor
Unknown
Orbital elements
Apogee altitude
350.995 km
Perigee altitude
344.793 km
Semi-major axis
6,726.031 km
Eccentricity
0.00046
Inclination
97.6452°
RAAN
250.3315°
Arg. of periapsis
355.412°
True anomaly
4.71434°
Mean anomaly
4.71°
Eccentric anomaly
4.71217°
Mean motion
3.93464 °/min
Orbital period
91.5 mins
BSTAR
0.00082124
Loading maneuver chart data...
Computing Atmospheric mass density...

Documentation

Showing up to 5 results
|